Havre, MT

7:41 PM MDT on April 27, 2017 (GMT -0600)
Havre City-County

Weather History for KHVR - October, 2012

Change the Weather History Date:

Monday, October 1, 2012

  Actual Average Record
Temperature  
Mean Temperature 57 °F 50 °F  
Max Temperature 83 °F 65 °F 88 °F (1992)
Min Temperature 31 °F 36 °F 18 °F (2004)
Degree Days  
Heating Degree Days 8 15  
Month to date heating degree days 8 15  
Since 1 July heating degree days 222 372  
Cooling Degree Days 0 0  
Month to date cooling degree days 0 0  
Year to date cooling degree days 507 386  
Growing Degree Days 6 (Base 50)    
Moisture  
Dew Point 33 °F    
Average Humidity 56    
Maximum Humidity 96    
Minimum Humidity 16    
Precipitation  
Precipitation 0.00 in 0.03 in 0.74 in (1898)
Month to date precipitation 0.00 0.03  
Year to date precipitation 10.33 9.82  
Snow  
Snow 0.00 in 0.00 in 7.40 in (1898)
Month to date snowfall 0.0 0.0  
Since 1 July snowfall 0.0 0.3  
Since 1 September snowfall 0.0 0.3  
Snow Depth 0.00 in    
Sea Level Pressure  
Sea Level Pressure 29.99 in    
Wind  
Wind Speed 11 mph (SW)    
Max Wind Speed 29 mph    
Max Gust Speed 37 mph    
Visibility 10 miles    
Events      
T = Trace of Precipitation, MM = Missing Value Source: NWS Daily Summary

Daily Weather History Graph

Daily Weather History Graph

Search for Another Location

Airport or City:

Trip Planner

Search our weather history database for the weather conditions in past years. The results will help you decide how hot, cold, wet, or windy it might be!

Date:

Astronomy

Oct. 01, 2012 Rise Set
Actual Time 7:19 AM MDT 6:56 PM MDT
Civil Twilight 6:48 AM MDT 7:28 PM MDT
Nautical Twilight 6:11 AM MDT 8:04 PM MDT
Astronomical Twilight 5:34 AM MDT 8:41 PM MDT
Moon 7:22 PM MDT (10/1) 9:04 AM MDT (10/1)
Length of Visible Light 12h 40m
Length of Day
11h 37m
Full, 97% of the Moon is Illuminated
Oct 1
Full
Oct 8
Last Quarter
Oct 15
New
Oct 21
First Quarter
Oct 29
Full

Hourly Weather History & Observations

Time (MDT) Temp. Windchill Dew Point Humidity Pressure Visibility Wind Dir Wind Speed Gust Speed Precip Events Conditions
12:53 AM 46.0 °F 44.8 °F 37.0 °F 71% 30.28 in 10.0 mi South 3.5 mph - N/A   Clear
1:53 AM 44.1 °F - 36.0 °F 73% 30.29 in 10.0 mi Calm Calm - N/A   Clear
2:53 AM 41.0 °F 39.0 °F 35.1 °F 79% 30.28 in 10.0 mi NE 3.5 mph - N/A   Clear
3:53 AM 37.9 °F - 33.1 °F 83% 30.27 in 10.0 mi Calm Calm - N/A   Clear
4:53 AM 37.0 °F 34.5 °F 32.0 °F 82% 30.25 in 10.0 mi ENE 3.5 mph - N/A   Clear
5:53 AM 36.0 °F 32.1 °F 32.0 °F 86% 30.23 in 10.0 mi ENE 4.6 mph - N/A   Clear
6:53 AM 34.0 °F - 32.0 °F 92% 30.22 in 10.0 mi Calm Calm - N/A   Clear
7:53 AM 33.1 °F 30.0 °F 30.0 °F 89% 30.21 in 10.0 mi WSW 3.5 mph - N/A   Clear
8:53 AM 39.0 °F - 33.1 °F 79% 30.20 in 10.0 mi Calm Calm - N/A   Clear
9:53 AM 46.0 °F - 36.0 °F 68% 30.17 in 10.0 mi Calm Calm - N/A   Clear
10:53 AM 60.1 °F - 39.0 °F 46% 30.09 in 10.0 mi SW 10.4 mph - N/A   Clear
11:53 AM 69.1 °F - 34.0 °F 27% 30.04 in 10.0 mi SW 17.3 mph 25.3 mph N/A   Clear
12:53 PM 73.0 °F - 33.1 °F 23% 29.99 in 10.0 mi SW 19.6 mph 27.6 mph N/A   Clear
1:53 PM 78.1 °F - 30.9 °F 18% 29.94 in 10.0 mi WSW 21.9 mph 25.3 mph N/A   Clear
2:53 PM 81.0 °F - 32.0 °F 17% 29.90 in 10.0 mi West 20.7 mph 28.8 mph N/A   Clear
3:53 PM 81.0 °F - 30.9 °F 16% 29.85 in 10.0 mi SW 21.9 mph 26.5 mph N/A   Clear
4:53 PM 81.0 °F - 30.9 °F 16% 29.81 in 10.0 mi WSW 16.1 mph 24.2 mph N/A   Clear
5:53 PM 79.0 °F - 30.9 °F 17% 29.79 in 10.0 mi WSW 13.8 mph - N/A   Clear
6:53 PM 70.0 °F - 30.9 °F 24% 29.78 in 10.0 mi SSW 11.5 mph - N/A   Clear
7:53 PM 69.1 °F - 30.9 °F 24% 29.75 in 10.0 mi WSW 11.5 mph - N/A   Clear
8:53 PM 64.9 °F - 30.9 °F 28% 29.72 in 10.0 mi SSW 12.7 mph - N/A   Clear
9:53 PM 61.0 °F - 30.9 °F 32% 29.69 in 10.0 mi SW 11.5 mph - N/A   Clear
10:53 PM 66.0 °F - 30.9 °F 27% 29.64 in 10.0 mi SW 21.9 mph - N/A   Clear
11:53 PM 68.0 °F - 30.9 °F 25% 29.62 in 10.0 mi WSW 21.9 mph 36.8 mph N/A   Clear